| time (UTC) | temp C | wind direction | speed KPH | gust KPH | rain 1hr cm | rain 24hr cm | rain mn cm | humidity % | barometer mb |
| 20260506224530 | 10 | 185 | 3.2 | 14.5 | 0.00 | 0.48 | 0.41 | 65 | 1017.6 |
| 20260506223027 | 10 | 185 | 1.6 | 6.4 | 0.00 | 0.48 | 0.41 | 67 | 1017.7 |
| 20260506221530 | 10 | 185 | 1.6 | 9.7 | 0.00 | 0.48 | 0.41 | 69 | 1017.9 |
| 20260506220031 | 9 | 185 | 4.8 | 9.7 | 0.00 | 0.48 | 0.41 | 70 | 1017.9 |
| 20260506214529 | 9 | 185 | 6.4 | 16.1 | 0.00 | 0.48 | 0.41 | 70 | 1017.9 |
| 20260506213030 | 9 | 0 | 1.6 | 14.5 | 0.00 | 0.48 | 0.41 | 71 | 1017.9 |
| 20260506211530 | 8 | 185 | 4.8 | 14.5 | 0.00 | 0.48 | 0.41 | 71 | 1018.0 |
| 20260506210035 | 8 | 185 | 4.8 | 14.5 | 0.00 | 0.48 | 0.41 | 73 | 1018.1 |
| 20260506204534 | 8 | 185 | 8.0 | 16.1 | 0.00 | 0.48 | 0.41 | 75 | 1018.4 |
| 20260506203030 | 8 | 185 | 6.4 | 16.1 | 0.00 | 0.48 | 0.41 | 74 | 1018.3 |
| 20260506201532 | 8 | 185 | 4.8 | 12.9 | 0.00 | 0.48 | 0.41 | 76 | 1018.3 |
| 20260506200040 | 8 | 185 | 4.8 | 17.7 | 0.00 | 0.48 | 0.41 | 77 | 1018.3 |
| 20260506194530 | 8 | 185 | 8.0 | 20.9 | 0.00 | 0.48 | 0.41 | 76 | 1018.4 |
| 20260506193031 | 8 | 185 | 12.9 | 22.5 | 0.00 | 0.48 | 0.41 | 78 | 1018.3 |
| 20260506191531 | 8 | 185 | 12.9 | 22.5 | 0.00 | 0.48 | 0.41 | 81 | 1018.6 |
| 20260506190029 | 7 | 185 | 8.0 | 19.3 | 0.00 | 0.48 | 0.41 | 85 | 1018.7 |
| 20260506184533 | 7 | 185 | 9.7 | 19.3 | 0.00 | 0.48 | 0.41 | 86 | 1018.8 |
| 20260506183035 | 6 | 185 | 11.3 | 25.7 | 0.00 | 0.48 | 0.41 | 86 | 1019.1 |
| 20260506181528 | 7 | 185 | 8.0 | 16.1 | 0.00 | 0.48 | 0.41 | 88 | 1019.1 |
| 20260506180028 | 6 | 185 | 12.9 | 22.5 | 0.00 | 0.48 | 0.41 | 88 | 1019.1 |
| 20260506174529 | 6 | 185 | 8.0 | 22.5 | 0.00 | 0.48 | 0.41 | 88 | 1019.1 |
| 20260506173033 | 7 | 185 | 14.5 | 24.1 | 0.00 | 0.48 | 0.41 | 87 | 1019.2 |
| 20260506171529 | 7 | 185 | 8.0 | 19.3 | 0.00 | 0.48 | 0.41 | 88 | 1019.1 |
| 20260506170030 | 7 | 185 | 8.0 | 16.1 | 0.00 | 0.48 | 0.41 | 89 | 1019.0 |
| 20260506164527 | 7 | 185 | 6.4 | 19.3 | 0.00 | 0.48 | 0.41 | 91 | 1018.9 |
| 20260506163030 | 6 | 185 | 14.5 | 19.3 | 0.00 | 0.48 | 0.41 | 93 | 1018.6 |
| 20260506161528 | 6 | 185 | 8.0 | 16.1 | 0.00 | 0.48 | 0.41 | 93 | 1018.6 |
| 20260506160028 | 6 | 185 | 6.4 | 14.5 | 0.00 | 0.48 | 0.41 | 93 | 1018.7 |
| 20260506154533 | 6 | 185 | 4.8 | 12.9 | 0.03 | 0.48 | 0.41 | 93 | 1018.4 |
| 20260506153031 | 5 | 185 | 4.8 | 16.1 | 0.05 | 0.48 | 0.41 | 93 | 1018.3 |
| 20260506151528 | 5 | 185 | 11.3 | 16.1 | 0.05 | 0.48 | 0.41 | 93 | 1018.4 |
| 20260506150028 | 5 | 185 | 11.3 | 16.1 | 0.05 | 0.48 | 0.41 | 93 | 1018.1 |
| 20260506144532 | 5 | 185 | 4.8 | 12.9 | 0.03 | 0.46 | 0.38 | 94 | 1018.1 |
| 20260506143034 | 5 | 185 | 8.0 | 12.9 | 0.00 | 0.43 | 0.36 | 94 | 1018.2 |
| 20260506141529 | 5 | 185 | 4.8 | 8.0 | 0.00 | 0.43 | 0.36 | 94 | 1018.5 |
| 20260506140029 | 5 | 185 | 1.6 | 8.0 | 0.00 | 0.43 | 0.36 | 94 | 1018.6 |
| 20260506134530 | 5 | 0 | 3.2 | 8.0 | 0.00 | 0.43 | 0.36 | 94 | 1018.3 |
| 20260506133032 | 5 | 185 | 1.6 | 6.4 | 0.00 | 0.43 | 0.36 | 94 | 1018.2 |
| 20260506131536 | 5 | 185 | 0.0 | 4.8 | 0.00 | 0.43 | 0.36 | 94 | 1018.2 |
| 20260506130029 | 5 | 0 | 0.0 | 4.8 | 0.00 | 0.43 | 0.36 | 94 | 1017.6 |
| 20260506124536 | 5 | 185 | 0.0 | 12.9 | 0.00 | 0.43 | 0.36 | 94 | 1017.5 |
| 20260506123039 | 4 | 185 | 4.8 | 12.9 | 0.00 | 0.43 | 0.36 | 94 | 1016.8 |
| 20260506121530 | 4 | 185 | 3.2 | 9.7 | 0.00 | 0.43 | 0.36 | 94 | 1016.7 |
| 20260506120052 | 4 | 185 | 6.4 | 14.5 | 0.00 | 0.43 | 0.36 | 94 | 1016.6 |
| 20260506114532 | 4 | 185 | 1.6 | 9.7 | 0.00 | 0.43 | 0.36 | 93 | 1016.5 |
| 20260506113032 | 4 | 185 | 4.8 | 8.0 | 0.00 | 0.43 | 0.36 | 93 | 1016.1 |
| 20260506111532 | 4 | 185 | 1.6 | 6.4 | 0.00 | 0.43 | 0.36 | 93 | 1016.2 |
| 20260506110030 | 4 | 0 | 3.2 | 8.0 | 0.00 | 0.43 | 0.36 | 93 | 1015.9 |
| 20260506104530 | 4 | 185 | 1.6 | 6.4 | 0.00 | 0.43 | 0.36 | 93 | 1015.7 |
| 20260506103032 | 4 | 185 | 1.6 | 9.7 | 0.00 | 0.43 | 0.36 | 93 | 1015.4 |
| 20260506101530 | 4 | 185 | 9.7 | 14.5 | 0.00 | 0.43 | 0.36 | 93 | 1015.1 |
| 20260506100030 | 4 | 185 | 6.4 | 12.9 | 0.00 | 0.43 | 0.36 | 93 | 1014.9 |
| 20260506094534 | 4 | 185 | 8.0 | 16.1 | 0.03 | 0.43 | 0.36 | 93 | 1015.2 |
| 20260506093043 | 4 | 185 | 8.0 | 14.5 | 0.03 | 0.43 | 0.36 | 93 | 1015.3 |
| 20260506091528 | 4 | 185 | 9.7 | 17.7 | 0.03 | 0.43 | 0.36 | 93 | 1015.3 |
| 20260506090029 | 4 | 185 | 9.7 | 19.3 | 0.03 | 0.43 | 0.36 | 93 | 1015.3 |
| 20260506084532 | 4 | 185 | 9.7 | 17.7 | 0.00 | 0.41 | 0.33 | 93 | 1015.2 |
| 20260506083031 | 3 | 185 | 9.7 | 24.1 | 0.00 | 0.41 | 0.33 | 92 | 1015.3 |
| 20260506081529 | 3 | 185 | 11.3 | 22.5 | 0.00 | 0.41 | 0.33 | 92 | 1015.8 |
| 20260506073031 | 3 | 185 | 14.5 | 24.1 | 0.05 | 0.41 | 0.33 | 92 | 1015.5 |
| 20260506071532 | 3 | 185 | 14.5 | 24.1 | 0.10 | 0.41 | 0.33 | 92 | 1015.4 |
| 20260506061534 | 4 | 180 | 12.9 | 20.9 | 0.20 | 0.30 | 0.23 | 91 | 1016.4 |
| 20260506044537 | 4 | 185 | 17.7 | 30.6 | 0.03 | 0.05 | 0.05 | 87 | 1013.5 |
| 20260506043029 | 5 | 185 | 24.1 | 35.4 | 0.00 | 0.03 | 0.03 | 87 | 1013.4 |
| 20260506041531 | 5 | 185 | 19.3 | 27.4 | 0.03 | 0.03 | 0.03 | 86 | 1013.9 |
| 20260506040030 | 5 | 185 | 14.5 | 29.0 | 0.03 | 0.03 | 0.03 | 85 | 1013.9 |
| 20260506034528 | 5 | 185 | 19.3 | 29.0 | 0.03 | 0.03 | 0.03 | 84 | 1013.1 |
| 20260506033032 | 5 | 185 | 19.3 | 27.4 | 0.03 | 0.03 | 0.03 | 82 | 1013.0 |
| 20260506031537 | 6 | 185 | 22.5 | 37.0 | 0.00 | 0.00 | 0.00 | 79 | 1013.0 |
| 20260506030029 | 6 | 185 | 20.9 | 30.6 | 0.00 | 0.00 | 0.00 | 71 | 1012.6 |
| 20260506024534 | 7 | 185 | 22.5 | 35.4 | 0.00 | 0.00 | 0.00 | 68 | 1012.6 |
| 20260506023028 | 7 | 185 | 19.3 | 35.4 | 0.00 | 0.00 | 0.00 | 68 | 1012.7 |
| 20260506021532 | 7 | 185 | 25.7 | 35.4 | 0.00 | 0.00 | 0.00 | 67 | 1012.4 |
| 20260506020031 | 7 | 185 | 22.5 | 35.4 | 0.00 | 0.00 | 0.00 | 65 | 1012.1 |
| 20260506014530 | 8 | 185 | 17.7 | 33.8 | 0.00 | 0.00 | 0.00 | 63 | 1012.1 |
| 20260506013031 | 8 | 185 | 20.9 | 32.2 | 0.00 | 0.00 | 0.00 | 61 | 1011.8 |
| 20260506011531 | 8 | 185 | 19.3 | 33.8 | 0.00 | 0.00 | 0.00 | 59 | 1011.7 |
| 20260506010032 | 8 | 185 | 24.1 | 32.2 | 0.00 | 0.00 | 0.00 | 58 | 1011.7 |
| 20260506004554 | 9 | 185 | 17.7 | 27.4 | 0.00 | 0.00 | 0.00 | 57 | 1011.8 |
| 20260506003032 | 9 | 185 | 14.5 | 29.0 | 0.00 | 0.00 | 0.00 | 57 | 1011.6 |
| 20260506001531 | 9 | 185 | 19.3 | 32.2 | 0.00 | 0.00 | 0.00 | 56 | 1011.5 |
| 20260506000029 | 10 | 185 | 24.1 | 32.2 | 0.00 | 0.00 | 0.00 | 56 | 1011.5 |
| 20260505234601 | 10 | 185 | 19.3 | 27.4 | 0.00 | 0.00 | 0.00 | 56 | 1011.7 |
| 20260505233028 | 10 | 185 | 20.9 | 30.6 | 0.00 | 0.00 | 0.00 | 55 | 1011.5 |
| 20260505231535 | 10 | 185 | 27.4 | 38.6 | 0.00 | 0.00 | 0.00 | 55 | 1010.8 |
| 20260505230027 | 11 | 185 | 20.9 | 35.4 | 0.00 | 0.00 | 0.00 | 54 | 1010.7 |